Theta_e
293 292 293 294 293 294 294 295 294 293 293 290 289 290 290 291 292 293 295 296 296 296 294 293 293 293 291 291 291 290 289 288 289 287 287 288 289 290 290 291 291 292 293
290 290 290 292 293 293 294 295 295 293 294 293 291 292 291 291 292 293 295 295 296 295 294 293 292 292 291 290 289 289 287 288 288 285 284 283 285 289 291 290 290 290 291
290 289 289 291 293 293 294 294 294 294 294 294 293 291 291 291 291 292 293 295 295 295 295 293 292 291 290 289 288 288 287 285 286 287 284 282 281 285 288 289 290 289 289
290 290 289 290 291 293 294 294 294 293 294 294 293 291 290 289 290 292 293 294 295 294 294 293 292 291 290 288 288 289 287 286 284 285 289 287 286 281 282 286 287 290 288
288 288 289 290 292 293 293 294 294 293 294 294 294 293 289 290 291 291 292 292 293 293 293 292 291 290 289 288 287 287 286 286 285 284 284 284 285 288 285 282 285 288 289
286 287 288 290 291 292 292 293 293 293 293 294 294 293 291 290 290 290 290 290 291 291 291 292 290 289 288 287 287 287 286 285 285 285 285 284 284 285 285 284 284 284 286
287 286 286 287 289 290 291 292 293 292 293 293 293 293 292 291 291 291 290 289 289 288 289 289 288 288 288 288 287 286 286 285 284 284 284 286 286 288 288 285 283 282 283
286 287 286 287 288 290 290 292 292 292 292 293 293 293 292 292 292 291 290 289 289 288 289 288 288 288 288 288 287 286 286 285 285 284 284 285 287 289 287 285 283 280 280
287 287 287 286 287 289 290 292 292 293 293 293 293 292 291 291 290 290 290 288 288 289 288 288 287 287 287 287 286 285 285 285 284 284 284 285 288 287 287 286 285 282 277
286 287 287 287 287 288 290 291 292 293 292 292 292 292 291 290 290 289 288 288 288 288 288 287 287 287 287 287 286 284 285 284 283 284 284 286 285 285 285 284 283 283 281
285 285 285 286 286 287 287 288 289 290 290 291 291 290 290 290 289 289 288 288 288 288 287 287 287 286 286 286 285 284 283 282 282 283 286 284 282 283 284 284 284 283 283
285 284 285 285 285 286 287 287 288 288 290 290 290 290 289 290 289 289 288 288 287 287 287 287 286 286 286 285 284 282 282 282 281 285 284 280 282 282 283 284 283 283 282
284 285 284 285 286 286 286 287 287 288 288 288 288 288 289 289 289 289 288 287 287 286 286 286 286 285 285 284 283 282 282 282 283 282 280 279 279 281 282 283 282 283 282
286 285 285 285 285 286 286 286 287 288 288 289 288 288 288 289 289 289 288 287 286 286 285 285 285 285 284 283 282 282 282 282 282 282 280 279 278 280 282 282 283 283 282
287 286 286 286 285 285 285 286 287 287 289 289 288 289 289 289 288 287 287 286 286 285 285 284 284 284 282 282 281 281 282 282 281 280 280 279 279 281 282 283 285 284 283
286 288 288 287 286 287 286 286 286 286 287 288 289 289 287 287 287 287 286 285 285 284 284 284 283 282 282 285 286 285 281 282 280 276 276 277 278 279 282 284 287 288 285
284 284 286 288 289 289 288 287 287 285 286 287 287 287 287 287 286 286 285 285 284 284 283 282 280 278 278 285 286 287 281 277 272 273 273 274 277 277 279 283 286 286 287
281 282 283 284 286 287 287 286 285 284 286 286 286 287 286 286 285 285 285 284 283 283 282 279 277 273 274 284 286 287 275 270 269 267 268 270 271 275 280 283 279 284 284
280 279 280 281 284 285 285 285 284 284 284 284 285 286 286 286 285 284 284 283 281 277 278 275 275 273 274 284 286 284 271 270 270 268 266 269 272 280 283 283 278 279 276
278 278 278 279 281 282 282 282 283 283 283 285 286 286 286 286 285 285 283 279 280 282 282 277 275 275 275 282 286 284 272 268 267 265 266 276 275 283 283 282 280 275 272
276 277 276 277 278 278 279 281 282 281 283 282 282 284 285 285 285 284 282 280 280 278 280 276 275 275 273 274 285 287 271 272 267 265 265 267 279 282 282 283 280 279 277
275 275 273 275 276 276 277 278 279 281 281 280 280 281 282 284 284 283 280 281 280 279 280 280 277 275 273 275 283 286 285 280 271 269 267 266 280 281 281 281 282 281 277
273 273 271 273 272 273 274 276 277 280 280 279 279 279 280 283 283 282 281 280 281 281 281 280 279 279 276 274 284 286 285 285 270 267 272 279 279 278 273 278 278 269 267
271 270 270 270 269 271 272 273 275 278 279 278 277 276 278 278 281 283 282 282 281 281 280 280 279 279 276 277 276 277 278 281 279 277 268 273 275 275 273 267 269 267 264
269 268 268 268 267 268 269 271 272 274 276 279 276 275 277 278 280 282 283 283 284 284 282 282 281 279 277 279 281 279 276 274 275 266 266 267 267 265 265 264 264 264 266
266 266 265 264 265 265 268 270 270 272 273 276 279 276 276 276 278 279 278 286 286 286 287 285 283 281 283 284 284 284 283 282 281 265 263 266 266 266 265 264 264 264 265
Wind_Speed
16 12 16 15 13 14 15 15 15 11 10 4 5 3 4 3 3 4 6 6 5 6 4 4 2 2 2 1 2 2 4 2 5 4 4 4 6 5 4 4 5 6 5
12 13 14 15 16 17 17 17 16 15 12 9 4 4 5 3 2 3 5 6 6 6 5 5 3 3 2 2 3 4 2 2 4 3 2 6 6 3 11 7 4 6 3
16 15 16 18 17 20 20 17 17 16 14 11 6 4 4 3 2 3 3 5 6 6 5 5 5 4 2 1 2 1 3 2 2 3 0 5 4 11 1 7 3 0 3
12 13 16 16 19 19 17 18 17 16 14 14 11 8 6 5 4 4 3 5 6 6 6 6 5 4 3 3 2 3 2 2 1 2 1 2 3 4 12 4 0 11 4
11 13 17 18 19 18 18 17 17 16 14 16 15 10 6 4 3 3 6 5 5 5 6 6 5 5 3 3 3 3 3 2 2 3 2 2 4 8 7 16 14 11 8
8 8 9 12 14 13 15 16 17 17 15 16 14 15 12 8 5 5 5 4 4 4 5 6 5 5 4 4 3 3 4 4 4 3 3 4 3 4 7 11 18 20 16
6 7 9 10 13 16 16 15 17 16 14 16 15 14 13 12 12 9 7 6 4 4 6 6 5 4 4 4 4 4 4 4 3 4 3 4 6 8 8 10 15 17 14
3 6 7 8 11 15 15 17 17 16 15 15 15 13 12 8 7 8 5 5 5 5 6 6 6 6 5 5 5 3 3 4 3 4 4 4 6 6 7 9 12 18 15
3 5 4 6 7 10 14 17 15 14 15 16 12 11 10 9 8 8 6 5 5 5 6 7 6 6 6 5 5 3 4 3 3 4 4 5 5 6 7 7 9 11 18
5 4 3 4 4 5 7 10 12 15 13 11 11 11 11 9 7 7 8 7 6 7 7 7 6 6 6 5 4 3 3 2 2 3 5 6 4 5 6 7 8 9 11
6 6 3 3 5 4 6 7 8 9 9 11 10 9 9 9 8 8 7 8 7 7 7 7 6 6 6 5 4 3 3 3 4 5 6 4 6 6 6 6 8 9 9
5 4 3 3 4 7 7 8 7 8 9 8 8 9 9 9 10 9 9 8 8 6 7 6 6 6 6 5 5 4 4 4 5 5 4 6 5 8 7 7 10 10 10
4 3 4 6 7 6 6 7 7 8 7 8 8 8 10 11 11 11 10 9 8 7 7 7 7 6 6 5 5 5 5 5 5 3 5 6 5 8 7 8 9 8 9
2 3 5 6 6 6 8 8 8 8 8 10 10 10 11 12 12 11 11 10 9 8 7 7 7 6 6 5 5 5 5 5 3 5 5 5 5 8 9 9 11 10 10
7 6 7 7 7 7 7 7 8 8 9 10 10 13 11 11 10 11 10 9 9 8 8 7 6 6 5 4 6 4 5 5 5 5 5 5 6 15 13 9 10 9 9
10 12 12 10 7 8 7 6 7 8 8 11 14 10 10 11 12 10 10 10 9 8 8 8 7 7 5 10 10 7 5 5 4 5 4 5 7 9 16 17 20 15 9
17 15 16 14 12 12 8 9 12 8 11 11 10 11 12 12 12 11 11 11 11 8 9 7 7 7 5 11 11 12 4 4 4 5 4 4 5 8 9 15 17 14 12
18 19 17 18 17 17 13 9 5 8 11 12 11 11 12 13 11 12 12 10 8 11 8 8 7 5 6 13 14 13 4 4 4 5 4 4 6 7 9 11 8 8 4
11 12 13 16 16 16 17 16 8 8 8 9 12 13 13 13 13 14 13 10 9 6 6 5 7 8 6 14 13 9 4 4 6 4 3 4 5 12 16 10 7 8 4
11 12 15 14 15 18 19 15 12 8 9 13 15 12 14 15 15 14 13 6 6 8 7 7 7 8 7 12 13 9 3 4 3 4 4 6 4 14 13 8 7 7 5
13 15 14 12 13 15 18 17 15 10 8 5 4 8 12 13 13 12 8 10 8 6 7 6 5 6 6 7 13 13 4 4 3 3 3 3 7 11 12 14 6 7 4
15 14 15 15 14 15 15 17 16 18 13 4 5 6 8 8 9 12 9 10 10 9 8 7 4 5 6 11 13 14 12 8 4 4 3 4 6 9 11 10 13 9 3
14 12 13 14 13 15 15 16 18 18 16 7 5 2 5 7 9 12 11 9 9 8 8 7 6 7 5 5 15 14 12 11 4 3 4 4 4 5 5 10 9 5 2
14 14 14 13 14 15 15 13 16 18 16 10 4 2 2 3 4 5 8 9 9 8 7 8 7 6 4 5 5 4 4 9 6 4 1 1 2 3 3 3 5 2 2
13 13 14 13 15 15 16 15 16 17 16 12 6 3 1 2 4 4 7 8 9 11 10 9 7 7 7 9 12 10 6 5 5 4 2 1 1 2 2 2 3 3 3
15 13 13 13 14 14 15 15 15 15 15 11 9 4 2 2 1 3 1 10 8 13 13 10 9 5 6 11 18 18 16 15 15 3 3 2 2 3 3 1 2 2 2
Wind_Direction
230 203 202 196 187 187 183 183 175 174 162 147 149 150 176 173 197 187 189 181 175 166 152 142 150 113 89 4 13 1 25 353 327 332 296 303 281 288 280 264 261 274 281
210 206 191 189 189 185 187 184 186 173 178 169 157 153 149 184 175 167 180 187 179 175 163 164 157 134 150 56 44 44 4 9 16 5 292 334 326 342 291 279 254 253 295
216 201 194 192 186 189 188 184 183 179 175 168 133 95 86 77 116 178 183 194 181 181 165 176 155 155 164 136 106 85 60 10 338 29 94 339 316 324 287 287 280 157 327
219 201 196 192 191 194 184 185 178 175 177 166 169 160 168 158 196 173 163 173 182 181 175 175 162 162 169 168 160 147 148 141 281 354 221 206 240 331 319 318 185 294 319
207 199 195 194 194 183 180 179 177 175 173 178 181 177 162 153 138 140 154 170 187 186 178 170 164 169 174 182 179 169 181 185 191 181 237 251 235 236 257 298 303 294 305
211 201 194 186 187 179 176 177 176 181 176 178 183 185 180 160 148 163 169 182 182 185 184 171 165 171 177 190 197 197 204 212 219 213 215 215 250 273 269 282 293 297 312
205 202 188 183 177 177 176 176 179 182 178 180 185 186 187 173 180 174 177 168 171 188 197 175 169 170 190 199 201 206 223 228 214 210 219 228 253 266 271 285 290 295 302
207 215 199 183 178 179 177 179 181 180 177 181 187 190 188 183 180 176 167 180 184 185 174 178 171 176 191 205 209 213 233 224 232 245 232 254 266 268 279 282 294 297 296
234 239 197 187 176 178 185 184 180 184 183 186 182 184 179 172 180 172 170 170 170 179 172 177 172 181 194 206 209 222 245 232 242 250 243 255 266 276 279 282 282 291 306
267 247 227 192 183 184 190 188 187 187 178 174 179 184 183 175 168 158 176 177 178 178 169 177 177 183 197 206 208 230 247 258 258 260 253 279 268 280 280 272 274 271 278
264 274 256 198 168 139 162 175 168 162 165 177 175 170 176 172 163 177 178 180 171 179 178 181 178 185 196 205 212 235 254 244 268 259 274 277 276 275 275 274 269 274 273
245 256 251 229 179 178 173 178 173 178 182 173 173 183 170 169 177 185 182 173 184 179 178 180 181 187 197 204 211 231 240 254 262 285 293 275 287 283 282 276 278 279 282
299 234 224 220 220 208 191 195 193 195 169 159 169 177 183 178 188 187 180 178 175 176 180 179 187 193 198 203 214 223 238 258 260 298 278 275 285 288 287 279 282 282 290
284 285 270 247 233 218 208 203 209 190 171 177 183 191 192 191 190 185 180 179 177 172 180 187 190 192 196 203 210 214 242 263 269 272 261 274 277 281 293 287 277 295 296
321 284 278 265 248 242 229 221 218 186 177 183 191 207 194 190 183 180 179 172 171 180 178 179 190 191 197 204 206 206 238 243 272 266 275 281 284 288 286 289 298 283 283
337 321 321 310 266 251 258 255 239 214 174 191 207 195 181 181 188 181 174 170 177 179 176 186 186 190 204 212 214 211 219 226 256 273 269 286 293 291 310 301 299 299 289
353 357 349 324 302 292 247 221 226 186 190 206 205 190 186 187 187 175 172 180 185 173 185 185 179 199 201 209 216 225 214 200 238 247 283 294 300 300 293 292 305 298 303
350 350 344 336 330 320 307 280 233 196 199 200 199 195 186 188 177 172 182 179 171 183 183 184 188 184 216 213 215 224 205 208 236 233 240 257 291 285 293 295 300 294 278
344 336 335 328 328 336 330 316 276 219 199 203 210 200 188 182 177 184 181 178 167 168 172 173 185 197 220 213 215 214 184 219 250 241 262 243 274 296 309 306 296 294 286
352 343 340 337 348 346 338 323 306 267 231 221 219 196 186 185 186 184 177 155 166 180 172 191 200 198 214 214 213 210 172 211 246 273 272 286 283 304 317 305 302 306 301
348 350 347 349 349 346 343 343 333 304 289 273 188 184 187 189 180 168 162 159 164 144 173 189 192 207 211 223 218 217 185 199 217 232 272 266 310 312 315 315 303 299 338
349 358 346 342 345 350 350 349 344 330 312 253 184 183 178 175 163 161 152 157 157 165 180 189 212 219 218 221 224 218 219 201 182 228 226 258 299 326 318 314 314 317 339
341 349 343 333 340 349 348 345 336 334 325 310 292 211 163 167 164 161 161 159 168 177 186 193 211 222 206 215 218 219 222 216 200 205 234 278 342 345 343 323 324 358 26
338 339 331 337 337 341 339 334 332 332 332 330 319 322 157 134 162 168 168 168 174 180 186 194 209 212 187 203 205 206 209 222 215 208 98 197 75 2 17 344 332 337 30
332 328 326 332 332 336 328 330 336 335 329 340 325 310 305 193 165 191 187 194 197 190 189 202 190 179 203 216 200 188 189 187 185 116 61 69 58 46 19 328 333 346 18
315 313 329 326 324 328 322 327 333 332 320 340 341 296 250 211 180 185 233 225 211 197 198 175 180 192 206 194 198 199 202 193 174 96 168 186 164 181 156 231 303 331 5